Regional Weather Roundup
Issued by NWS Boston, MA

Home | Current Version | Previous Version | Text Only | Print | Product List | Glossary On
Versions: 1 2 3 4 5 6 7 8 9 10 11 12 13 14 15 16 17 18 19 20 21 22 23 24 25 26 27 28 29 30 31 32 33 34 35 36 37 38 39 40 41 42 43 44 45 46 47 48 49 50
000
ASUS41 KBOX 241510
RWRBOX

REGIONAL WEATHER ROUNDUP
NATIONAL WEATHER SERVICE TAUNTON MA
1000 AM EST SAT FEB 24 2018

NOTE:  "FAIR" INDICATES FEW OR NO CLOUDS BELOW 12,000 FEET WITH NO
SIGNIFICANT WEATHER AND/OR OBSTRUCTIONS TO VISIBILITY.

MAZALL-241600-
EASTERN MASSACHUSETTS

CITY           SKY/WX    TMP DP  RH WIND       PRES   REMARKS
BOSTON         FAIR      49  39  68 NW14G21   30.09S
BEVERLY        FAIR      51  39  63 NW10G17   30.08S
LAWRENCE       FAIR      51  38  60 W8G24     30.10S
BEDFORD        FAIR      50  38  63 NW17G25   30.07F
BLUE HILL        N/A    N/A N/A N/A W12G25    30.06S
NORWOOD        FAIR      54  39  57 W9        30.09S
MARSHFIELD     FAIR      54  39  58 NW8G17    30.09R
PLYMOUTH       FAIR      53  41  63 NW12      30.09S
TAUNTON        FAIR      53  40  61 W9        30.09S
NEW BEDFORD    FAIR      51  42  71 NW8       30.09F
$$

MAZALL-241600-
CAPE COD AND THE ISLANDS

CITY           SKY/WX    TMP DP  RH WIND       PRES   REMARKS
FALMOUTH       FAIR      48  43  81 NW10      30.10
HYANNIS        FAIR      52  42  69 W9        30.08S
CHATHAM        FAIR      52  41  66 W9G20     30.11S
PROVINCETOWN   FAIR      48  42  80 W10       30.11R
NANTUCKET      CLOUDY    43  43 100 W12       30.11F FOG
MARTHAS VNYRD  FAIR      41  40  96 W10       30.10F
$$

MAZALL-241600-
CENTRAL AND WESTERN MASSACHUSETTS

CITY           SKY/WX    TMP DP  RH WIND       PRES   REMARKS
WORCESTER      FAIR      45  35  68 W17       30.08S
FITCHBURG      FAIR      52  38  58 NW14G25   30.10R
ORANGE         FAIR      47  36  65 NW16      30.11F
SPRINGFIELD    MOSUNNY   50  35  55 NW10      30.11S
WESTFIELD      FAIR      50  36  58 NW16      30.12F
NORTH ADAMS    CLOUDY    44  34  67 W14       30.13F
PITTSFIELD     CLOUDY    41  33  73 NW10G17   30.12S
$$

RIZALL-241600-
RHODE ISLAND

CITY           SKY/WX    TMP DP  RH WIND       PRES   REMARKS
PROVIDENCE     FAIR      53  40  61 NW10      30.11F
NEWPORT        FAIR      49  42  77 VRB5      30.10F
BLOCK ISLAND   FAIR      45  41  86 W10       30.13F
SMITHFIELD     FAIR      50  38  63 MISG      30.10S
WESTERLY       FOG       44  43  96 SW9       30.13F VSB 3/4
$$

CTZALL-241600-
CONNECTICUT

CITY           SKY/WX    TMP DP  RH WIND       PRES   REMARKS
BRADLEY INTL   FAIR      50  37  61 NW15G22   30.13F
HARTFORD       FAIR      52  39  61 NW10      30.14F
BRIDGEPORT     FAIR      47  43  86 SW6       30.15S
DANBURY        FAIR      48  41  76 N8        30.16S
GROTON         FOG       43  41  93 SW9       30.13S VSB 1/2
NEW HAVEN      FAIR      48  42  80 W9        30.14F
CHESTER        FAIR      52  39  62 N9        30.13S
MERIDEN        FAIR      51  38  60 NW13      30.14F
WILLIMANTIC    FAIR      51  38  60 N14G20    30.14S
OXFORD         FAIR      47  42  83 NW8       30.14F
$$

MEZ002-015-021-024-NHZ003-005-008-011-012-014-VTZ005-008-241600-
NORTHERN NEW ENGLAND

CITY           SKY/WX    TMP DP  RH WIND       PRES   REMARKS
PORTLAND ME    FAIR      47  37  68 W12       30.05R
BANGOR ME      PTSUNNY   41  30  65 W6        30.00R
CONCORD NH     PTSUNNY   46  35  65 NW12      30.08R
MANCHESTER NH  FAIR      49  34  56 W15G23    30.07R
NASHUA NH      FAIR      49  37  63 W15G24    30.09S
PORTSMOUTH NH  PTSUNNY   47  36  64 NW17G24   30.05S
JAFFREY NH     FAIR      44  37  76 VRB6      30.08S
KEENE NH       PTSUNNY   45  44  97 CALM      30.10F
BURLINGTON VT  CLOUDY    41  32  70 W6        30.15R
MT. WASHINGTON FOG       16  16 100 W70G81      N/A  VSB 1/16WCI -12
$$

NYZ052-076-241600-
EASTERN NEW YORK

CITY           SKY/WX    TMP DP  RH WIND       PRES   REMARKS
ALBANY         PTSUNNY   46  35  65 NW16G24   30.18F
NEW YORK CITY  PTSUNNY   50  41  71 NW6       30.15F
$$

ANZALL-241600-
MARINE OBSERVATIONS

STATION/POSITION TIME  TEMP    WIND        PRES    VSBY  WAVE
                       AIR SEA DIR/SP/G                  HT/PER
                 (UTC) (F)     (DEG/KT/KT) (MB)    (MI)  (FT/S)
BOSTON BUOY      1450   44 40  280/ 10/ 10 1018.3F         1/ 6
BUZZARDS BAY     1400   37     250/ 15/ 17 1020.4F
NANTUCKET SOUND  1450   39 40  240/  8/ 12 1019.7F         1/ 3
MASS BAY-STELLWA 1404   42 41              1017.7R         2/ 3
ISLE OF SHOALS   1500   47     300/ 23/ 26 1017.4F
S OF BLOCK IS    1443      41                N/A           4/ 6
$$

......................KEY.........................
  SKY/WX - SKY CONDITION/PRESENT WEATHER
  TMP    - TEMPERATURE IN FAHRENHEIT
  DWPT   - DEWPOINT IN FAHRENHEIT
  RH     - RELATIVE HUMIDITY IN PERCENT
  WIND   - DIRECTION AND SPEED IN MPH
  PRES   - MEAN SEA LEVEL PRESSURE IN INCHES OF HG
  WCI    - WIND CHILL INDEX
  VSB    - VISIBILITY IN MILES
  HX     - HEAT INDEX
  TC     - TEMPERATURE IN CELSIUS
  VRB    - VARIABLE WIND DIRECTION
  N/A    - NOT AVAILABLE



USA.gov is the U.S. government's official web portal to all federal, state and local government web resources and services.